Winnipeg, Manitoba

8:52 AM CDT on July 27, 2017 (GMT -0500)
Winnipeg International Airport

Weather History for CYWG - August, 2013

Change the Weather History Date:

Thursday, August 22, 2013

  Actual Average Record
Temperature  
Mean Temperature 62 °F -  
Max Temperature 76 °F 68 °F 93 °F (2011)
Min Temperature 48 °F 46 °F 42 °F (2002)
Degree Days  
Heating Degree Days 3    
Growing Degree Days 12 (Base 50)    
Moisture  
Dew Point 49 °F    
Average Humidity 63    
Maximum Humidity 92    
Minimum Humidity 34    
Precipitation  
Precipitation 0.00 in 0.08 in - ()
Sea Level Pressure  
Sea Level Pressure 30.16 in    
Wind  
Wind Speed 5 mph ()    
Max Wind Speed 9 mph    
Max Gust Speed -    
Visibility 14.0 miles    
Events      
Averages and records for this station are not official NWS values.
T = Trace of Precipitation, MM = Missing Value Source: Averaged Metar Reports

Daily Weather History Graph

Daily Weather History Graph

Search for Another Location

Airport or City:

Trip Planner

Search our weather history database for the weather conditions in past years. The results will help you decide how hot, cold, wet, or windy it might be!

Date:

Astronomy

Aug. 22, 2013 Rise Set
Actual Time 6:29 AM CDT 8:32 PM CDT
Civil Twilight 5:54 AM CDT 9:07 PM CDT
Nautical Twilight 5:11 AM CDT 9:50 PM CDT
Astronomical Twilight 4:22 AM CDT 10:38 PM CDT
Moon 8:57 PM CDT (8/22) 8:36 AM CDT (8/22)
Length of Visible Light 15h 12m
Length of Day
14h 02m
Waning Gibbous, 96% of the Moon is Illuminated
Aug 22
Waning Gibbous
Aug 28
Last Quarter
Sep 5
New
Sep 12
First Quarter
Sep 19
Full

Hourly Weather History & Observations

Time (CDT) Temp. Dew Point Humidity Pressure Visibility Wind Dir Wind Speed Gust Speed Precip Events Conditions
12:00 AM 53.6 °F 50.0 °F 88% 30.12 in 15.0 mi NW 4.6 mph - N/A   Partly Cloudy
1:00 AM 53 °F 51 °F 92% 30.12 in 9 mi Calm Calm - -  
1:00 AM 55.4 °F 48.2 °F 77% 30.13 in 15.0 mi West 6.9 mph - N/A   Clear
2:00 AM 50.0 °F 46.4 °F 87% 30.13 in 15.0 mi West 8.1 mph - N/A   Clear
3:00 AM 48.2 °F 44.6 °F 87% 30.15 in 15.0 mi WNW 6.9 mph - N/A   Clear
4:00 AM 51.8 °F 46.4 °F 82% 30.15 in 15.0 mi WSW 8.1 mph - N/A   Clear
5:00 AM 50.0 °F 46.4 °F 87% 30.17 in 15.0 mi West 4.6 mph - N/A   Clear
6:00 AM 50.0 °F 46.4 °F 87% 30.18 in 15.0 mi West 6.9 mph - N/A   Clear
7:00 AM 48.2 °F 44.6 °F 87% 30.20 in 15.0 mi West 6.9 mph - N/A   Clear
8:00 AM 53.6 °F 50.0 °F 88% 30.22 in 12.0 mi West 3.5 mph - N/A   Clear
9:00 AM 59.0 °F 53.6 °F 82% 30.22 in 12.0 mi WNW 3.5 mph - N/A   Clear
10:00 AM 66.2 °F 53.6 °F 64% 30.22 in 12.0 mi WNW 4.6 mph - N/A   Clear
11:00 AM 69.8 °F 50.0 °F 49% 30.22 in 15.0 mi West 4.6 mph - N/A   Partly Cloudy
12:00 PM 71.6 °F 50.0 °F 46% 30.21 in 15.0 mi West 3.5 mph - N/A   Partly Cloudy
1:00 PM 70 °F 54 °F 46% 30.19 in 9 mi Calm Calm - -  
1:00 PM 69.8 °F 53.6 °F 56% 30.19 in 15.0 mi SW 4.6 mph - N/A   Mostly Cloudy
2:00 PM 75.2 °F 48.2 °F 38% 30.18 in 15.0 mi WSW 9.2 mph - N/A   Scattered Clouds
3:00 PM 73.4 °F 48.2 °F 41% 30.17 in 15.0 mi NW 5.8 mph - N/A   Scattered Clouds
4:00 PM 75.2 °F 48.2 °F 38% 30.15 in 15.0 mi WNW 6.9 mph - N/A   Scattered Clouds
5:00 PM 75.2 °F 48.2 °F 38% 30.14 in 15.0 mi South 3.5 mph - N/A   Partly Cloudy
6:00 PM 75.2 °F 48.2 °F 38% 30.13 in 15.0 mi West 5.8 mph - N/A   Partly Cloudy
7:00 PM 75 °F 52 °F 34% 30.12 in 9 mi Calm Calm - -  
7:00 PM 73.4 °F 48.2 °F 41% 30.12 in 15.0 mi West 5.8 mph - N/A   Clear
8:00 PM 71.6 °F 50.0 °F 46% 30.11 in 15.0 mi Calm Calm - N/A   Clear
9:00 PM 66.2 °F 50.0 °F 56% 30.11 in 15.0 mi SSE 4.6 mph - N/A   Partly Cloudy
10:00 PM 62.6 °F 50.0 °F 63% 30.11 in 15.0 mi South 4.6 mph - N/A   Partly Cloudy
11:00 PM 60.8 °F 50.0 °F 68% 30.11 in 15.0 mi SSE 8.1 mph - N/A   Clear